Index of /20260430/WXO-DD/model_rdps/10km/00/033
Name Last modified Size Description
Parent Directory -
20260430T00Z_MSC_RDPS_AbsoluteVorticity_IsbL-0250_RLatLon0.09_PT033H.grib2 2026-04-30 02:49 609K
20260430T00Z_MSC_RDPS_AbsoluteVorticity_IsbL-0500_RLatLon0.09_PT033H.grib2 2026-04-30 02:49 555K
20260430T00Z_MSC_RDPS_AbsoluteVorticity_IsbL-0700_RLatLon0.09_PT033H.grib2 2026-04-30 02:49 617K
20260430T00Z_MSC_RDPS_AbsoluteVorticity_IsbL-0850_RLatLon0.09_PT033H.grib2 2026-04-30 02:49 769K
20260430T00Z_MSC_RDPS_AirTemp_AGL-120m_RLatLon0.09_PT033H.grib2 2026-04-30 02:49 376K
20260430T00Z_MSC_RDPS_AirTemp_AGL-2m_RLatLon0.09_PT033H.grib2 2026-04-30 02:49 639K
20260430T00Z_MSC_RDPS_AirTemp_AGL-40m_RLatLon0.09_PT033H.grib2 2026-04-30 02:49 395K
20260430T00Z_MSC_RDPS_AirTemp_AGL-80m_RLatLon0.09_PT033H.grib2 2026-04-30 02:49 384K
20260430T00Z_MSC_RDPS_AirTemp_IsbL-0001_RLatLon0.09_PT033H.grib2 2026-04-30 02:49 298K
20260430T00Z_MSC_RDPS_AirTemp_IsbL-0005_RLatLon0.09_PT033H.grib2 2026-04-30 02:49 289K
20260430T00Z_MSC_RDPS_AirTemp_IsbL-0010_RLatLon0.09_PT033H.grib2 2026-04-30 02:49 299K
20260430T00Z_MSC_RDPS_AirTemp_IsbL-0020_RLatLon0.09_PT033H.grib2 2026-04-30 02:49 315K
20260430T00Z_MSC_RDPS_AirTemp_IsbL-0030_RLatLon0.09_PT033H.grib2 2026-04-30 02:49 336K
20260430T00Z_MSC_RDPS_AirTemp_IsbL-0050_RLatLon0.09_PT033H.grib2 2026-04-30 02:49 311K
20260430T00Z_MSC_RDPS_AirTemp_IsbL-0100_RLatLon0.09_PT033H.grib2 2026-04-30 02:49 422K
20260430T00Z_MSC_RDPS_AirTemp_IsbL-0150_RLatLon0.09_PT033H.grib2 2026-04-30 02:49 417K
20260430T00Z_MSC_RDPS_AirTemp_IsbL-0175_RLatLon0.09_PT033H.grib2 2026-04-30 02:49 409K
20260430T00Z_MSC_RDPS_AirTemp_IsbL-0200_RLatLon0.09_PT033H.grib2 2026-04-30 02:49 413K
20260430T00Z_MSC_RDPS_AirTemp_IsbL-0225_RLatLon0.09_PT033H.grib2 2026-04-30 02:49 414K
20260430T00Z_MSC_RDPS_AirTemp_IsbL-0250_RLatLon0.09_PT033H.grib2 2026-04-30 02:49 422K
20260430T00Z_MSC_RDPS_AirTemp_IsbL-0275_RLatLon0.09_PT033H.grib2 2026-04-30 02:49 402K
20260430T00Z_MSC_RDPS_AirTemp_IsbL-0300_RLatLon0.09_PT033H.grib2 2026-04-30 02:49 408K
20260430T00Z_MSC_RDPS_AirTemp_IsbL-0350_RLatLon0.09_PT033H.grib2 2026-04-30 02:49 421K
20260430T00Z_MSC_RDPS_AirTemp_IsbL-0400_RLatLon0.09_PT033H.grib2 2026-04-30 02:49 423K
20260430T00Z_MSC_RDPS_AirTemp_IsbL-0450_RLatLon0.09_PT033H.grib2 2026-04-30 02:49 394K
20260430T00Z_MSC_RDPS_AirTemp_IsbL-0500_RLatLon0.09_PT033H.grib2 2026-04-30 02:49 404K
20260430T00Z_MSC_RDPS_AirTemp_IsbL-0550_RLatLon0.09_PT033H.grib2 2026-04-30 02:49 422K
20260430T00Z_MSC_RDPS_AirTemp_IsbL-0600_RLatLon0.09_PT033H.grib2 2026-04-30 02:49 441K
20260430T00Z_MSC_RDPS_AirTemp_IsbL-0650_RLatLon0.09_PT033H.grib2 2026-04-30 02:49 457K
20260430T00Z_MSC_RDPS_AirTemp_IsbL-0700_RLatLon0.09_PT033H.grib2 2026-04-30 02:49 480K
20260430T00Z_MSC_RDPS_AirTemp_IsbL-0750_RLatLon0.09_PT033H.grib2 2026-04-30 02:49 514K
20260430T00Z_MSC_RDPS_AirTemp_IsbL-0800_RLatLon0.09_PT033H.grib2 2026-04-30 02:49 444K
20260430T00Z_MSC_RDPS_AirTemp_IsbL-0850_RLatLon0.09_PT033H.grib2 2026-04-30 02:49 494K
20260430T00Z_MSC_RDPS_AirTemp_IsbL-0875_RLatLon0.09_PT033H.grib2 2026-04-30 02:49 516K
20260430T00Z_MSC_RDPS_AirTemp_IsbL-0900_RLatLon0.09_PT033H.grib2 2026-04-30 02:49 526K
20260430T00Z_MSC_RDPS_AirTemp_IsbL-0925_RLatLon0.09_PT033H.grib2 2026-04-30 02:49 525K
20260430T00Z_MSC_RDPS_AirTemp_IsbL-0950_RLatLon0.09_PT033H.grib2 2026-04-30 02:49 527K
20260430T00Z_MSC_RDPS_AirTemp_IsbL-0970_RLatLon0.09_PT033H.grib2 2026-04-30 02:49 519K
20260430T00Z_MSC_RDPS_AirTemp_IsbL-0985_RLatLon0.09_PT033H.grib2 2026-04-30 02:49 508K
20260430T00Z_MSC_RDPS_AirTemp_IsbL-1000_RLatLon0.09_PT033H.grib2 2026-04-30 02:49 492K
20260430T00Z_MSC_RDPS_AirTemp_IsbL-1015_RLatLon0.09_PT033H.grib2 2026-04-30 02:49 491K
20260430T00Z_MSC_RDPS_Albedo_Sfc_RLatLon0.09_PT033H.grib2 2026-04-30 02:49 162K
20260430T00Z_MSC_RDPS_CAPE_Sfc_RLatLon0.09_PT033H.grib2 2026-04-30 02:49 1.6M
20260430T00Z_MSC_RDPS_CIN_Sfc_RLatLon0.09_PT033H.grib2 2026-04-30 02:49 1.1M
20260430T00Z_MSC_RDPS_CloudWater_EAtm_RLatLon0.09_PT033H.grib2 2026-04-30 02:49 218K
20260430T00Z_MSC_RDPS_ConvectivePrecip-Accum_Sfc_RLatLon0.09_PT033H.grib2 2026-04-30 02:49 893K
20260430T00Z_MSC_RDPS_DewPointDepression_AGL-2m_RLatLon0.09_PT033H.grib2 2026-04-30 02:49 394K
20260430T00Z_MSC_RDPS_DewPointDepression_IsbL-0001_RLatLon0.09_PT033H.grib2 2026-04-30 02:49 193
20260430T00Z_MSC_RDPS_DewPointDepression_IsbL-0005_RLatLon0.09_PT033H.grib2 2026-04-30 02:49 193
20260430T00Z_MSC_RDPS_DewPointDepression_IsbL-0010_RLatLon0.09_PT033H.grib2 2026-04-30 02:49 193
20260430T00Z_MSC_RDPS_DewPointDepression_IsbL-0020_RLatLon0.09_PT033H.grib2 2026-04-30 02:49 193
20260430T00Z_MSC_RDPS_DewPointDepression_IsbL-0030_RLatLon0.09_PT033H.grib2 2026-04-30 02:49 193
20260430T00Z_MSC_RDPS_DewPointDepression_IsbL-0050_RLatLon0.09_PT033H.grib2 2026-04-30 02:49 79K
20260430T00Z_MSC_RDPS_DewPointDepression_IsbL-0100_RLatLon0.09_PT033H.grib2 2026-04-30 02:49 129K
20260430T00Z_MSC_RDPS_DewPointDepression_IsbL-0150_RLatLon0.09_PT033H.grib2 2026-04-30 02:49 147K
20260430T00Z_MSC_RDPS_DewPointDepression_IsbL-0175_RLatLon0.09_PT033H.grib2 2026-04-30 02:49 178K
20260430T00Z_MSC_RDPS_DewPointDepression_IsbL-0200_RLatLon0.09_PT033H.grib2 2026-04-30 02:49 214K
20260430T00Z_MSC_RDPS_DewPointDepression_IsbL-0225_RLatLon0.09_PT033H.grib2 2026-04-30 02:49 254K
20260430T00Z_MSC_RDPS_DewPointDepression_IsbL-0250_RLatLon0.09_PT033H.grib2 2026-04-30 02:49 296K
20260430T00Z_MSC_RDPS_DewPointDepression_IsbL-0275_RLatLon0.09_PT033H.grib2 2026-04-30 02:49 304K
20260430T00Z_MSC_RDPS_DewPointDepression_IsbL-0300_RLatLon0.09_PT033H.grib2 2026-04-30 02:49 325K
20260430T00Z_MSC_RDPS_DewPointDepression_IsbL-0350_RLatLon0.09_PT033H.grib2 2026-04-30 02:49 331K
20260430T00Z_MSC_RDPS_DewPointDepression_IsbL-0400_RLatLon0.09_PT033H.grib2 2026-04-30 02:49 339K
20260430T00Z_MSC_RDPS_DewPointDepression_IsbL-0450_RLatLon0.09_PT033H.grib2 2026-04-30 02:49 347K
20260430T00Z_MSC_RDPS_DewPointDepression_IsbL-0500_RLatLon0.09_PT033H.grib2 2026-04-30 02:49 347K
20260430T00Z_MSC_RDPS_DewPointDepression_IsbL-0550_RLatLon0.09_PT033H.grib2 2026-04-30 02:49 359K
20260430T00Z_MSC_RDPS_DewPointDepression_IsbL-0600_RLatLon0.09_PT033H.grib2 2026-04-30 02:49 374K
20260430T00Z_MSC_RDPS_DewPointDepression_IsbL-0650_RLatLon0.09_PT033H.grib2 2026-04-30 02:49 379K
20260430T00Z_MSC_RDPS_DewPointDepression_IsbL-0700_RLatLon0.09_PT033H.grib2 2026-04-30 02:49 387K
20260430T00Z_MSC_RDPS_DewPointDepression_IsbL-0750_RLatLon0.09_PT033H.grib2 2026-04-30 02:49 403K
20260430T00Z_MSC_RDPS_DewPointDepression_IsbL-0800_RLatLon0.09_PT033H.grib2 2026-04-30 02:49 434K
20260430T00Z_MSC_RDPS_DewPointDepression_IsbL-0850_RLatLon0.09_PT033H.grib2 2026-04-30 02:49 464K
20260430T00Z_MSC_RDPS_DewPointDepression_IsbL-0875_RLatLon0.09_PT033H.grib2 2026-04-30 02:49 469K
20260430T00Z_MSC_RDPS_DewPointDepression_IsbL-0900_RLatLon0.09_PT033H.grib2 2026-04-30 02:49 461K
20260430T00Z_MSC_RDPS_DewPointDepression_IsbL-0925_RLatLon0.09_PT033H.grib2 2026-04-30 02:49 446K
20260430T00Z_MSC_RDPS_DewPointDepression_IsbL-0950_RLatLon0.09_PT033H.grib2 2026-04-30 02:49 442K
20260430T00Z_MSC_RDPS_DewPointDepression_IsbL-0970_RLatLon0.09_PT033H.grib2 2026-04-30 02:49 433K
20260430T00Z_MSC_RDPS_DewPointDepression_IsbL-0985_RLatLon0.09_PT033H.grib2 2026-04-30 02:49 427K
20260430T00Z_MSC_RDPS_DewPointDepression_IsbL-1000_RLatLon0.09_PT033H.grib2 2026-04-30 02:49 423K
20260430T00Z_MSC_RDPS_DewPointDepression_IsbL-1015_RLatLon0.09_PT033H.grib2 2026-04-30 02:49 414K
20260430T00Z_MSC_RDPS_DewPoint_AGL-2m_RLatLon0.09_PT033H.grib2 2026-04-30 02:49 396K
20260430T00Z_MSC_RDPS_DownwardLongwaveRadiationFlux-Accum_Sfc_RLatLon0.09_PT033H.grib2 2026-04-30 02:49 480K
20260430T00Z_MSC_RDPS_DownwardShortwaveRadiationFlux-Accum_NTAtm_RLatLon0.09_PT033H.grib2 2026-04-30 02:49 114K
20260430T00Z_MSC_RDPS_DownwardShortwaveRadiationFlux-Accum_Sfc_RLatLon0.09_PT033H.grib2 2026-04-30 02:49 515K
20260430T00Z_MSC_RDPS_FreezingRain-Accum1h_Sfc_RLatLon0.09_PT033H.grib2 2026-04-30 02:49 36K
20260430T00Z_MSC_RDPS_FreezingRain-Accum3h_Sfc_RLatLon0.09_PT033H.grib2 2026-04-30 02:49 48K
20260430T00Z_MSC_RDPS_FreezingRain-Accum_Sfc_RLatLon0.09_PT033H.grib2 2026-04-30 02:49 146K
20260430T00Z_MSC_RDPS_GeopotentialHeight_IsbL-0001_RLatLon0.09_PT033H.grib2 2026-04-30 02:49 308K
20260430T00Z_MSC_RDPS_GeopotentialHeight_IsbL-0005_RLatLon0.09_PT033H.grib2 2026-04-30 02:49 301K
20260430T00Z_MSC_RDPS_GeopotentialHeight_IsbL-0010_RLatLon0.09_PT033H.grib2 2026-04-30 02:49 302K
20260430T00Z_MSC_RDPS_GeopotentialHeight_IsbL-0020_RLatLon0.09_PT033H.grib2 2026-04-30 02:49 302K
20260430T00Z_MSC_RDPS_GeopotentialHeight_IsbL-0030_RLatLon0.09_PT033H.grib2 2026-04-30 02:49 303K
20260430T00Z_MSC_RDPS_GeopotentialHeight_IsbL-0050_RLatLon0.09_PT033H.grib2 2026-04-30 02:49 305K
20260430T00Z_MSC_RDPS_GeopotentialHeight_IsbL-0100_RLatLon0.09_PT033H.grib2 2026-04-30 02:49 282K
20260430T00Z_MSC_RDPS_GeopotentialHeight_IsbL-0150_RLatLon0.09_PT033H.grib2 2026-04-30 02:49 225K
20260430T00Z_MSC_RDPS_GeopotentialHeight_IsbL-0175_RLatLon0.09_PT033H.grib2 2026-04-30 02:49 229K
20260430T00Z_MSC_RDPS_GeopotentialHeight_IsbL-0200_RLatLon0.09_PT033H.grib2 2026-04-30 02:49 262K
20260430T00Z_MSC_RDPS_GeopotentialHeight_IsbL-0225_RLatLon0.09_PT033H.grib2 2026-04-30 02:49 265K
20260430T00Z_MSC_RDPS_GeopotentialHeight_IsbL-0250_RLatLon0.09_PT033H.grib2 2026-04-30 02:49 265K
20260430T00Z_MSC_RDPS_GeopotentialHeight_IsbL-0275_RLatLon0.09_PT033H.grib2 2026-04-30 02:49 264K
20260430T00Z_MSC_RDPS_GeopotentialHeight_IsbL-0300_RLatLon0.09_PT033H.grib2 2026-04-30 02:49 233K
20260430T00Z_MSC_RDPS_GeopotentialHeight_IsbL-0350_RLatLon0.09_PT033H.grib2 2026-04-30 02:49 230K
20260430T00Z_MSC_RDPS_GeopotentialHeight_IsbL-0400_RLatLon0.09_PT033H.grib2 2026-04-30 02:49 226K
20260430T00Z_MSC_RDPS_GeopotentialHeight_IsbL-0450_RLatLon0.09_PT033H.grib2 2026-04-30 02:49 294K
20260430T00Z_MSC_RDPS_GeopotentialHeight_IsbL-0500_RLatLon0.09_PT033H.grib2 2026-04-30 02:49 289K
20260430T00Z_MSC_RDPS_GeopotentialHeight_IsbL-0550_RLatLon0.09_PT033H.grib2 2026-04-30 02:49 285K
20260430T00Z_MSC_RDPS_GeopotentialHeight_IsbL-0600_RLatLon0.09_PT033H.grib2 2026-04-30 02:49 281K
20260430T00Z_MSC_RDPS_GeopotentialHeight_IsbL-0650_RLatLon0.09_PT033H.grib2 2026-04-30 02:49 253K
20260430T00Z_MSC_RDPS_GeopotentialHeight_IsbL-0700_RLatLon0.09_PT033H.grib2 2026-04-30 02:49 252K
20260430T00Z_MSC_RDPS_GeopotentialHeight_IsbL-0750_RLatLon0.09_PT033H.grib2 2026-04-30 02:49 335K
20260430T00Z_MSC_RDPS_GeopotentialHeight_IsbL-0800_RLatLon0.09_PT033H.grib2 2026-04-30 02:49 342K
20260430T00Z_MSC_RDPS_GeopotentialHeight_IsbL-0850_RLatLon0.09_PT033H.grib2 2026-04-30 02:49 352K
20260430T00Z_MSC_RDPS_GeopotentialHeight_IsbL-0875_RLatLon0.09_PT033H.grib2 2026-04-30 02:49 355K
20260430T00Z_MSC_RDPS_GeopotentialHeight_IsbL-0900_RLatLon0.09_PT033H.grib2 2026-04-30 02:49 358K
20260430T00Z_MSC_RDPS_GeopotentialHeight_IsbL-0925_RLatLon0.09_PT033H.grib2 2026-04-30 02:49 362K
20260430T00Z_MSC_RDPS_GeopotentialHeight_IsbL-0950_RLatLon0.09_PT033H.grib2 2026-04-30 02:49 364K
20260430T00Z_MSC_RDPS_GeopotentialHeight_IsbL-0970_RLatLon0.09_PT033H.grib2 2026-04-30 02:49 370K
20260430T00Z_MSC_RDPS_GeopotentialHeight_IsbL-0985_RLatLon0.09_PT033H.grib2 2026-04-30 02:49 378K
20260430T00Z_MSC_RDPS_GeopotentialHeight_IsbL-1000_RLatLon0.09_PT033H.grib2 2026-04-30 02:49 390K
20260430T00Z_MSC_RDPS_GeopotentialHeight_IsbL-1015_RLatLon0.09_PT033H.grib2 2026-04-30 02:49 405K
20260430T00Z_MSC_RDPS_Humidex_Sfc_RLatLon0.09_PT033H.grib2 2026-04-30 02:49 2.4M
20260430T00Z_MSC_RDPS_IcePellets-Accum1h_Sfc_RLatLon0.09_PT033H.grib2 2026-04-30 02:49 7.7K
20260430T00Z_MSC_RDPS_IcePellets-Accum3h_Sfc_RLatLon0.09_PT033H.grib2 2026-04-30 02:49 7.6K
20260430T00Z_MSC_RDPS_IcePellets-Accum_Sfc_RLatLon0.09_PT033H.grib2 2026-04-30 02:49 14K
20260430T00Z_MSC_RDPS_KIndex_Sfc_RLatLon0.09_PT033H.grib2 2026-04-30 02:49 2.5M
20260430T00Z_MSC_RDPS_LatentHeatNetFlux_Sfc_RLatLon0.09_PT033H.grib2 2026-04-30 02:49 403K
20260430T00Z_MSC_RDPS_LiftedIndex-MU-VT_IsbL-0500_RLatLon0.09_PT033H.grib2 2026-04-30 02:49 2.4M
20260430T00Z_MSC_RDPS_NetLongwaveRadiationFlux-Accum_Sfc_RLatLon0.09_PT033H.grib2 2026-04-30 02:49 618K
20260430T00Z_MSC_RDPS_NetShortwaveRadiationFlux-Accum_Sfc_RLatLon0.09_PT033H.grib2 2026-04-30 02:49 515K
20260430T00Z_MSC_RDPS_PlanetaryBoundaryLayerHeight_Sfc_RLatLon0.09_PT033H.grib2 2026-04-30 02:49 1.1M
20260430T00Z_MSC_RDPS_Precip-Accum1h_Sfc_RLatLon0.09_PT033H.grib2 2026-04-30 02:49 1.2M
20260430T00Z_MSC_RDPS_Precip-Accum3h_Sfc_RLatLon0.09_PT033H.grib2 2026-04-30 02:49 1.3M
20260430T00Z_MSC_RDPS_Precip-Accum_Sfc_RLatLon0.09_PT033H.grib2 2026-04-30 02:49 1.8M
20260430T00Z_MSC_RDPS_PrecipRate_Sfc_RLatLon0.09_PT033H.grib2 2026-04-30 02:49 173K
20260430T00Z_MSC_RDPS_PrecipType-Instant_Sfc_RLatLon0.09_PT033H.grib2 2026-04-30 02:49 566K
20260430T00Z_MSC_RDPS_Pressure-Trend3h_Sfc_RLatLon0.09_PT033H.grib2 2026-04-30 02:49 1.2M
20260430T00Z_MSC_RDPS_Pressure_MSL_RLatLon0.09_PT033H.grib2 2026-04-30 02:49 323K
20260430T00Z_MSC_RDPS_Pressure_PVU-1.5_RLatLon0.09_PT033H.grib2 2026-04-30 02:49 2.5M
20260430T00Z_MSC_RDPS_Pressure_PVU-1_RLatLon0.09_PT033H.grib2 2026-04-30 02:49 2.4M
20260430T00Z_MSC_RDPS_Pressure_PVU-2_RLatLon0.09_PT033H.grib2 2026-04-30 02:49 2.4M
20260430T00Z_MSC_RDPS_Pressure_Sfc_RLatLon0.09_PT033H.grib2 2026-04-30 02:49 499K
20260430T00Z_MSC_RDPS_RadiativeTemp_Sfc_RLatLon0.09_PT033H.grib2 2026-04-30 02:49 309K
20260430T00Z_MSC_RDPS_Rain-Accum1h_Sfc_RLatLon0.09_PT033H.grib2 2026-04-30 02:49 522K
20260430T00Z_MSC_RDPS_Rain-Accum3h_Sfc_RLatLon0.09_PT033H.grib2 2026-04-30 02:49 656K
20260430T00Z_MSC_RDPS_Rain-Accum_Sfc_RLatLon0.09_PT033H.grib2 2026-04-30 02:49 1.4M
20260430T00Z_MSC_RDPS_RelativeHumidity_AGL-2m_RLatLon0.09_PT033H.grib2 2026-04-30 02:49 1.0M
20260430T00Z_MSC_RDPS_RelativeHumidity_IsbL-0010_RLatLon0.09_PT033H.grib2 2026-04-30 02:49 643K
20260430T00Z_MSC_RDPS_RelativeHumidity_IsbL-0020_RLatLon0.09_PT033H.grib2 2026-04-30 02:49 683K
20260430T00Z_MSC_RDPS_RelativeHumidity_IsbL-0030_RLatLon0.09_PT033H.grib2 2026-04-30 02:49 603K
20260430T00Z_MSC_RDPS_RelativeHumidity_IsbL-0050_RLatLon0.09_PT033H.grib2 2026-04-30 02:49 313K
20260430T00Z_MSC_RDPS_RelativeHumidity_IsbL-0100_RLatLon0.09_PT033H.grib2 2026-04-30 02:49 283K
20260430T00Z_MSC_RDPS_RelativeHumidity_IsbL-0150_RLatLon0.09_PT033H.grib2 2026-04-30 02:49 400K
20260430T00Z_MSC_RDPS_RelativeHumidity_IsbL-0175_RLatLon0.09_PT033H.grib2 2026-04-30 02:49 463K
20260430T00Z_MSC_RDPS_RelativeHumidity_IsbL-0200_RLatLon0.09_PT033H.grib2 2026-04-30 02:49 542K
20260430T00Z_MSC_RDPS_RelativeHumidity_IsbL-0225_RLatLon0.09_PT033H.grib2 2026-04-30 02:49 615K
20260430T00Z_MSC_RDPS_RelativeHumidity_IsbL-0250_RLatLon0.09_PT033H.grib2 2026-04-30 02:49 689K
20260430T00Z_MSC_RDPS_RelativeHumidity_IsbL-0275_RLatLon0.09_PT033H.grib2 2026-04-30 02:49 715K
20260430T00Z_MSC_RDPS_RelativeHumidity_IsbL-0300_RLatLon0.09_PT033H.grib2 2026-04-30 02:49 761K
20260430T00Z_MSC_RDPS_RelativeHumidity_IsbL-0350_RLatLon0.09_PT033H.grib2 2026-04-30 02:49 782K
20260430T00Z_MSC_RDPS_RelativeHumidity_IsbL-0400_RLatLon0.09_PT033H.grib2 2026-04-30 02:49 793K
20260430T00Z_MSC_RDPS_RelativeHumidity_IsbL-0450_RLatLon0.09_PT033H.grib2 2026-04-30 02:49 798K
20260430T00Z_MSC_RDPS_RelativeHumidity_IsbL-0500_RLatLon0.09_PT033H.grib2 2026-04-30 02:49 797K
20260430T00Z_MSC_RDPS_RelativeHumidity_IsbL-0550_RLatLon0.09_PT033H.grib2 2026-04-30 02:49 815K
20260430T00Z_MSC_RDPS_RelativeHumidity_IsbL-0600_RLatLon0.09_PT033H.grib2 2026-04-30 02:49 851K
20260430T00Z_MSC_RDPS_RelativeHumidity_IsbL-0650_RLatLon0.09_PT033H.grib2 2026-04-30 02:49 858K
20260430T00Z_MSC_RDPS_RelativeHumidity_IsbL-0700_RLatLon0.09_PT033H.grib2 2026-04-30 02:49 886K
20260430T00Z_MSC_RDPS_RelativeHumidity_IsbL-0750_RLatLon0.09_PT033H.grib2 2026-04-30 02:49 921K
20260430T00Z_MSC_RDPS_RelativeHumidity_IsbL-0800_RLatLon0.09_PT033H.grib2 2026-04-30 02:49 1.0M
20260430T00Z_MSC_RDPS_RelativeHumidity_IsbL-0850_RLatLon0.09_PT033H.grib2 2026-04-30 02:49 1.0M
20260430T00Z_MSC_RDPS_RelativeHumidity_IsbL-0875_RLatLon0.09_PT033H.grib2 2026-04-30 02:49 1.0M
20260430T00Z_MSC_RDPS_RelativeHumidity_IsbL-0900_RLatLon0.09_PT033H.grib2 2026-04-30 02:49 1.1M
20260430T00Z_MSC_RDPS_RelativeHumidity_IsbL-0925_RLatLon0.09_PT033H.grib2 2026-04-30 02:49 1.1M
20260430T00Z_MSC_RDPS_RelativeHumidity_IsbL-0950_RLatLon0.09_PT033H.grib2 2026-04-30 02:49 1.1M
20260430T00Z_MSC_RDPS_RelativeHumidity_IsbL-0970_RLatLon0.09_PT033H.grib2 2026-04-30 02:49 1.1M
20260430T00Z_MSC_RDPS_RelativeHumidity_IsbL-0985_RLatLon0.09_PT033H.grib2 2026-04-30 02:49 1.0M
20260430T00Z_MSC_RDPS_RelativeHumidity_IsbL-1000_RLatLon0.09_PT033H.grib2 2026-04-30 02:49 1.0M
20260430T00Z_MSC_RDPS_RelativeHumidity_IsbL-1015_RLatLon0.09_PT033H.grib2 2026-04-30 02:49 1.0M
20260430T00Z_MSC_RDPS_Runoff-Accum_Sfc_RLatLon0.09_PT033H.grib2 2026-04-30 02:49 59K
20260430T00Z_MSC_RDPS_SWEATIndex_Sfc_RLatLon0.09_PT033H.grib2 2026-04-30 02:49 2.4M
20260430T00Z_MSC_RDPS_SeeingIndex_EAtm_RLatLon0.09_PT033H.grib2 2026-04-30 02:49 1.0M
20260430T00Z_MSC_RDPS_SensibleHeatNetFlux_Sfc_RLatLon0.09_PT033H.grib2 2026-04-30 02:49 290K
20260430T00Z_MSC_RDPS_ShowalterIndex_IsbL-0500_RLatLon0.09_PT033H.grib2 2026-04-30 02:49 2.6M
20260430T00Z_MSC_RDPS_SkyTransparencyIndex_EAtm_RLatLon0.09_PT033H.grib2 2026-04-30 02:49 701K
20260430T00Z_MSC_RDPS_Snow-Accum1h_Sfc_RLatLon0.09_PT033H.grib2 2026-04-30 02:49 474K
20260430T00Z_MSC_RDPS_Snow-Accum3h_Sfc_RLatLon0.09_PT033H.grib2 2026-04-30 02:49 448K
20260430T00Z_MSC_RDPS_Snow-Accum_Sfc_RLatLon0.09_PT033H.grib2 2026-04-30 02:49 728K
20260430T00Z_MSC_RDPS_SnowDensity_Sfc_RLatLon0.09_PT033H.grib2 2026-04-30 02:49 176K
20260430T00Z_MSC_RDPS_SnowDepth_Sfc_RLatLon0.09_PT033H.grib2 2026-04-30 02:49 671K
20260430T00Z_MSC_RDPS_SoilTemp_DBS-0to10cm_RLatLon0.09_PT033H.grib2 2026-04-30 02:49 230K
20260430T00Z_MSC_RDPS_SoilTemp_Sfc_RLatLon0.09_PT033H.grib2 2026-04-30 02:49 271K
20260430T00Z_MSC_RDPS_SoilVolumetricIceContent_Sfc_RLatLon0.09_PT033H.grib2 2026-04-30 02:49 162K
20260430T00Z_MSC_RDPS_SoilVolumetricWaterContent_DBS-0to10cm_RLatLon0.09_PT033H.grib2 2026-04-30 02:49 269K
20260430T00Z_MSC_RDPS_SoilVolumetricWaterContent_DBS-0to1cm_RLatLon0.09_PT033H.grib2 2026-04-30 02:49 337K
20260430T00Z_MSC_RDPS_SpecificHumidity_AGL-120m_RLatLon0.09_PT033H.grib2 2026-04-30 02:49 488K
20260430T00Z_MSC_RDPS_SpecificHumidity_AGL-2m_RLatLon0.09_PT033H.grib2 2026-04-30 02:49 654K
20260430T00Z_MSC_RDPS_SpecificHumidity_AGL-40m_RLatLon0.09_PT033H.grib2 2026-04-30 02:49 493K
20260430T00Z_MSC_RDPS_SpecificHumidity_AGL-80m_RLatLon0.09_PT033H.grib2 2026-04-30 02:49 489K
20260430T00Z_MSC_RDPS_SpecificHumidity_IsbL-0001_RLatLon0.09_PT033H.grib2 2026-04-30 02:49 389K
20260430T00Z_MSC_RDPS_SpecificHumidity_IsbL-0005_RLatLon0.09_PT033H.grib2 2026-04-30 02:49 364K
20260430T00Z_MSC_RDPS_SpecificHumidity_IsbL-0010_RLatLon0.09_PT033H.grib2 2026-04-30 02:49 398K
20260430T00Z_MSC_RDPS_SpecificHumidity_IsbL-0020_RLatLon0.09_PT033H.grib2 2026-04-30 02:49 388K
20260430T00Z_MSC_RDPS_SpecificHumidity_IsbL-0030_RLatLon0.09_PT033H.grib2 2026-04-30 02:49 372K
20260430T00Z_MSC_RDPS_SpecificHumidity_IsbL-0050_RLatLon0.09_PT033H.grib2 2026-04-30 02:49 457K
20260430T00Z_MSC_RDPS_SpecificHumidity_IsbL-0100_RLatLon0.09_PT033H.grib2 2026-04-30 02:49 427K
20260430T00Z_MSC_RDPS_SpecificHumidity_IsbL-0150_RLatLon0.09_PT033H.grib2 2026-04-30 02:49 447K
20260430T00Z_MSC_RDPS_SpecificHumidity_IsbL-0175_RLatLon0.09_PT033H.grib2 2026-04-30 02:49 522K
20260430T00Z_MSC_RDPS_SpecificHumidity_IsbL-0200_RLatLon0.09_PT033H.grib2 2026-04-30 02:49 437K
20260430T00Z_MSC_RDPS_SpecificHumidity_IsbL-0225_RLatLon0.09_PT033H.grib2 2026-04-30 02:49 444K
20260430T00Z_MSC_RDPS_SpecificHumidity_IsbL-0250_RLatLon0.09_PT033H.grib2 2026-04-30 02:49 551K
20260430T00Z_MSC_RDPS_SpecificHumidity_IsbL-0275_RLatLon0.09_PT033H.grib2 2026-04-30 02:49 469K
20260430T00Z_MSC_RDPS_SpecificHumidity_IsbL-0300_RLatLon0.09_PT033H.grib2 2026-04-30 02:49 446K
20260430T00Z_MSC_RDPS_SpecificHumidity_IsbL-0350_RLatLon0.09_PT033H.grib2 2026-04-30 02:49 537K
20260430T00Z_MSC_RDPS_SpecificHumidity_IsbL-0400_RLatLon0.09_PT033H.grib2 2026-04-30 02:49 518K
20260430T00Z_MSC_RDPS_SpecificHumidity_IsbL-0450_RLatLon0.09_PT033H.grib2 2026-04-30 02:49 570K
20260430T00Z_MSC_RDPS_SpecificHumidity_IsbL-0500_RLatLon0.09_PT033H.grib2 2026-04-30 02:49 502K
20260430T00Z_MSC_RDPS_SpecificHumidity_IsbL-0550_RLatLon0.09_PT033H.grib2 2026-04-30 02:49 575K
20260430T00Z_MSC_RDPS_SpecificHumidity_IsbL-0600_RLatLon0.09_PT033H.grib2 2026-04-30 02:49 632K
20260430T00Z_MSC_RDPS_SpecificHumidity_IsbL-0650_RLatLon0.09_PT033H.grib2 2026-04-30 02:49 550K
20260430T00Z_MSC_RDPS_SpecificHumidity_IsbL-0700_RLatLon0.09_PT033H.grib2 2026-04-30 02:49 590K
20260430T00Z_MSC_RDPS_SpecificHumidity_IsbL-0750_RLatLon0.09_PT033H.grib2 2026-04-30 02:49 640K
20260430T00Z_MSC_RDPS_SpecificHumidity_IsbL-0800_RLatLon0.09_PT033H.grib2 2026-04-30 02:49 717K
20260430T00Z_MSC_RDPS_SpecificHumidity_IsbL-0850_RLatLon0.09_PT033H.grib2 2026-04-30 02:49 790K
20260430T00Z_MSC_RDPS_SpecificHumidity_IsbL-0875_RLatLon0.09_PT033H.grib2 2026-04-30 02:49 820K
20260430T00Z_MSC_RDPS_SpecificHumidity_IsbL-0900_RLatLon0.09_PT033H.grib2 2026-04-30 02:49 835K
20260430T00Z_MSC_RDPS_SpecificHumidity_IsbL-0925_RLatLon0.09_PT033H.grib2 2026-04-30 02:49 836K
20260430T00Z_MSC_RDPS_SpecificHumidity_IsbL-0950_RLatLon0.09_PT033H.grib2 2026-04-30 02:49 840K
20260430T00Z_MSC_RDPS_SpecificHumidity_IsbL-0970_RLatLon0.09_PT033H.grib2 2026-04-30 02:49 830K
20260430T00Z_MSC_RDPS_SpecificHumidity_IsbL-0985_RLatLon0.09_PT033H.grib2 2026-04-30 02:49 679K
20260430T00Z_MSC_RDPS_SpecificHumidity_IsbL-1000_RLatLon0.09_PT033H.grib2 2026-04-30 02:49 672K
20260430T00Z_MSC_RDPS_SpecificHumidity_IsbL-1015_RLatLon0.09_PT033H.grib2 2026-04-30 02:49 662K
20260430T00Z_MSC_RDPS_SpecificHumidity_Sfc_RLatLon0.09_PT033H.grib2 2026-04-30 02:49 293K
20260430T00Z_MSC_RDPS_StormRelativeHelicity_EtaL-10000_RLatLon0.09_PT033H.grib2 2026-04-30 02:49 1.1M
20260430T00Z_MSC_RDPS_StormSeverityIndex_EtaL-10000_RLatLon0.09_PT033H.grib2 2026-04-30 02:49 1.2M
20260430T00Z_MSC_RDPS_Thickness_IsbL-0850to0700_RLatLon0.09_PT033H.grib2 2026-04-30 02:49 175K
20260430T00Z_MSC_RDPS_Thickness_IsbL-1000to0500_RLatLon0.09_PT033H.grib2 2026-04-30 02:49 195K
20260430T00Z_MSC_RDPS_Thickness_IsbL-1000to0850_RLatLon0.09_PT033H.grib2 2026-04-30 02:49 258K
20260430T00Z_MSC_RDPS_TotalCloudCover_Sfc_RLatLon0.09_PT033H.grib2 2026-04-30 02:49 658K
20260430T00Z_MSC_RDPS_TotalTotalsIndex_Sfc_RLatLon0.09_PT033H.grib2 2026-04-30 02:49 2.4M
20260430T00Z_MSC_RDPS_UVIndex-ClearSky_Sfc_RLatLon0.09_PT033H.grib2 2026-04-30 02:49 113K
20260430T00Z_MSC_RDPS_UVIndex_Sfc_RLatLon0.09_PT033H.grib2 2026-04-30 02:49 199K
20260430T00Z_MSC_RDPS_UpwardLongwaveRadiationFlux_NTAtm_RLatLon0.09_PT033H.grib2 2026-04-30 02:49 485K
20260430T00Z_MSC_RDPS_UpwardShortwaveRadiationFlux_NTAtm_RLatLon0.09_PT033H.grib2 2026-04-30 02:49 159K
20260430T00Z_MSC_RDPS_VerticalVelocity_IsbL-0250_RLatLon0.09_PT033H.grib2 2026-04-30 02:49 429K
20260430T00Z_MSC_RDPS_VerticalVelocity_IsbL-0500_RLatLon0.09_PT033H.grib2 2026-04-30 02:49 539K
20260430T00Z_MSC_RDPS_VerticalVelocity_IsbL-0700_RLatLon0.09_PT033H.grib2 2026-04-30 02:49 615K
20260430T00Z_MSC_RDPS_VerticalVelocity_IsbL-0850_RLatLon0.09_PT033H.grib2 2026-04-30 02:49 696K
20260430T00Z_MSC_RDPS_VerticalWindShear_EtaL-6500_RLatLon0.09_PT033H.grib2 2026-04-30 02:49 1.2M
20260430T00Z_MSC_RDPS_WindChill_Sfc_RLatLon0.09_PT033H.grib2 2026-04-30 02:49 1.2M
20260430T00Z_MSC_RDPS_WindDir_AGL-10m_RLatLon0.09_PT033H.grib2 2026-04-30 02:49 1.0M
20260430T00Z_MSC_RDPS_WindDir_AGL-120m_RLatLon0.09_PT033H.grib2 2026-04-30 02:49 609K
20260430T00Z_MSC_RDPS_WindDir_AGL-40m_RLatLon0.09_PT033H.grib2 2026-04-30 02:49 646K
20260430T00Z_MSC_RDPS_WindDir_AGL-80m_RLatLon0.09_PT033H.grib2 2026-04-30 02:49 623K
20260430T00Z_MSC_RDPS_WindDir_IsbL-0001_RLatLon0.09_PT033H.grib2 2026-04-30 02:49 306K
20260430T00Z_MSC_RDPS_WindDir_IsbL-0005_RLatLon0.09_PT033H.grib2 2026-04-30 02:49 374K
20260430T00Z_MSC_RDPS_WindDir_IsbL-0010_RLatLon0.09_PT033H.grib2 2026-04-30 02:49 383K
20260430T00Z_MSC_RDPS_WindDir_IsbL-0020_RLatLon0.09_PT033H.grib2 2026-04-30 02:49 417K
20260430T00Z_MSC_RDPS_WindDir_IsbL-0030_RLatLon0.09_PT033H.grib2 2026-04-30 02:49 414K
20260430T00Z_MSC_RDPS_WindDir_IsbL-0050_RLatLon0.09_PT033H.grib2 2026-04-30 02:49 432K
20260430T00Z_MSC_RDPS_WindDir_IsbL-0100_RLatLon0.09_PT033H.grib2 2026-04-30 02:49 424K
20260430T00Z_MSC_RDPS_WindDir_IsbL-0150_RLatLon0.09_PT033H.grib2 2026-04-30 02:49 422K
20260430T00Z_MSC_RDPS_WindDir_IsbL-0175_RLatLon0.09_PT033H.grib2 2026-04-30 02:49 445K
20260430T00Z_MSC_RDPS_WindDir_IsbL-0200_RLatLon0.09_PT033H.grib2 2026-04-30 02:49 453K
20260430T00Z_MSC_RDPS_WindDir_IsbL-0225_RLatLon0.09_PT033H.grib2 2026-04-30 02:49 457K
20260430T00Z_MSC_RDPS_WindDir_IsbL-0250_RLatLon0.09_PT033H.grib2 2026-04-30 02:49 455K
20260430T00Z_MSC_RDPS_WindDir_IsbL-0275_RLatLon0.09_PT033H.grib2 2026-04-30 02:49 477K
20260430T00Z_MSC_RDPS_WindDir_IsbL-0300_RLatLon0.09_PT033H.grib2 2026-04-30 02:49 473K
20260430T00Z_MSC_RDPS_WindDir_IsbL-0350_RLatLon0.09_PT033H.grib2 2026-04-30 02:49 491K
20260430T00Z_MSC_RDPS_WindDir_IsbL-0400_RLatLon0.09_PT033H.grib2 2026-04-30 02:49 505K
20260430T00Z_MSC_RDPS_WindDir_IsbL-0450_RLatLon0.09_PT033H.grib2 2026-04-30 02:49 518K
20260430T00Z_MSC_RDPS_WindDir_IsbL-0500_RLatLon0.09_PT033H.grib2 2026-04-30 02:49 533K
20260430T00Z_MSC_RDPS_WindDir_IsbL-0550_RLatLon0.09_PT033H.grib2 2026-04-30 02:49 555K
20260430T00Z_MSC_RDPS_WindDir_IsbL-0600_RLatLon0.09_PT033H.grib2 2026-04-30 02:49 583K
20260430T00Z_MSC_RDPS_WindDir_IsbL-0650_RLatLon0.09_PT033H.grib2 2026-04-30 02:49 626K
20260430T00Z_MSC_RDPS_WindDir_IsbL-0700_RLatLon0.09_PT033H.grib2 2026-04-30 02:49 676K
20260430T00Z_MSC_RDPS_WindDir_IsbL-0750_RLatLon0.09_PT033H.grib2 2026-04-30 02:49 718K
20260430T00Z_MSC_RDPS_WindDir_IsbL-0800_RLatLon0.09_PT033H.grib2 2026-04-30 02:49 780K
20260430T00Z_MSC_RDPS_WindDir_IsbL-0850_RLatLon0.09_PT033H.grib2 2026-04-30 02:49 852K
20260430T00Z_MSC_RDPS_WindDir_IsbL-0875_RLatLon0.09_PT033H.grib2 2026-04-30 02:49 886K
20260430T00Z_MSC_RDPS_WindDir_IsbL-0900_RLatLon0.09_PT033H.grib2 2026-04-30 02:49 906K
20260430T00Z_MSC_RDPS_WindDir_IsbL-0925_RLatLon0.09_PT033H.grib2 2026-04-30 02:49 915K
20260430T00Z_MSC_RDPS_WindDir_IsbL-0950_RLatLon0.09_PT033H.grib2 2026-04-30 02:49 921K
20260430T00Z_MSC_RDPS_WindDir_IsbL-0970_RLatLon0.09_PT033H.grib2 2026-04-30 02:49 927K
20260430T00Z_MSC_RDPS_WindDir_IsbL-0985_RLatLon0.09_PT033H.grib2 2026-04-30 02:49 938K
20260430T00Z_MSC_RDPS_WindDir_IsbL-1000_RLatLon0.09_PT033H.grib2 2026-04-30 02:49 956K
20260430T00Z_MSC_RDPS_WindDir_IsbL-1015_RLatLon0.09_PT033H.grib2 2026-04-30 02:49 973K
20260430T00Z_MSC_RDPS_WindGust-Max_AGL-10m_RLatLon0.09_PT033H.grib2 2026-04-30 02:49 1.0M
20260430T00Z_MSC_RDPS_WindGust-Min_AGL-10m_RLatLon0.09_PT033H.grib2 2026-04-30 02:49 967K
20260430T00Z_MSC_RDPS_WindGust_AGL-10m_RLatLon0.09_PT033H.grib2 2026-04-30 02:49 1.0M
20260430T00Z_MSC_RDPS_WindSpeed_AGL-10m_RLatLon0.09_PT033H.grib2 2026-04-30 02:49 837K
20260430T00Z_MSC_RDPS_WindSpeed_AGL-120m_RLatLon0.09_PT033H.grib2 2026-04-30 02:49 540K
20260430T00Z_MSC_RDPS_WindSpeed_AGL-40m_RLatLon0.09_PT033H.grib2 2026-04-30 02:49 669K
20260430T00Z_MSC_RDPS_WindSpeed_AGL-80m_RLatLon0.09_PT033H.grib2 2026-04-30 02:49 540K
20260430T00Z_MSC_RDPS_WindSpeed_IsbL-0001_RLatLon0.09_PT033H.grib2 2026-04-30 02:49 332K
20260430T00Z_MSC_RDPS_WindSpeed_IsbL-0005_RLatLon0.09_PT033H.grib2 2026-04-30 02:49 382K
20260430T00Z_MSC_RDPS_WindSpeed_IsbL-0010_RLatLon0.09_PT033H.grib2 2026-04-30 02:49 397K
20260430T00Z_MSC_RDPS_WindSpeed_IsbL-0020_RLatLon0.09_PT033H.grib2 2026-04-30 02:49 321K
20260430T00Z_MSC_RDPS_WindSpeed_IsbL-0030_RLatLon0.09_PT033H.grib2 2026-04-30 02:49 417K
20260430T00Z_MSC_RDPS_WindSpeed_IsbL-0050_RLatLon0.09_PT033H.grib2 2026-04-30 02:49 351K
20260430T00Z_MSC_RDPS_WindSpeed_IsbL-0100_RLatLon0.09_PT033H.grib2 2026-04-30 02:49 474K
20260430T00Z_MSC_RDPS_WindSpeed_IsbL-0150_RLatLon0.09_PT033H.grib2 2026-04-30 02:49 378K
20260430T00Z_MSC_RDPS_WindSpeed_IsbL-0175_RLatLon0.09_PT033H.grib2 2026-04-30 02:49 424K
20260430T00Z_MSC_RDPS_WindSpeed_IsbL-0200_RLatLon0.09_PT033H.grib2 2026-04-30 02:49 440K
20260430T00Z_MSC_RDPS_WindSpeed_IsbL-0225_RLatLon0.09_PT033H.grib2 2026-04-30 02:49 447K
20260430T00Z_MSC_RDPS_WindSpeed_IsbL-0250_RLatLon0.09_PT033H.grib2 2026-04-30 02:49 451K
20260430T00Z_MSC_RDPS_WindSpeed_IsbL-0275_RLatLon0.09_PT033H.grib2 2026-04-30 02:49 467K
20260430T00Z_MSC_RDPS_WindSpeed_IsbL-0300_RLatLon0.09_PT033H.grib2 2026-04-30 02:49 463K
20260430T00Z_MSC_RDPS_WindSpeed_IsbL-0350_RLatLon0.09_PT033H.grib2 2026-04-30 02:49 473K
20260430T00Z_MSC_RDPS_WindSpeed_IsbL-0400_RLatLon0.09_PT033H.grib2 2026-04-30 02:49 475K
20260430T00Z_MSC_RDPS_WindSpeed_IsbL-0450_RLatLon0.09_PT033H.grib2 2026-04-30 02:49 458K
20260430T00Z_MSC_RDPS_WindSpeed_IsbL-0500_RLatLon0.09_PT033H.grib2 2026-04-30 02:49 457K
20260430T00Z_MSC_RDPS_WindSpeed_IsbL-0550_RLatLon0.09_PT033H.grib2 2026-04-30 02:49 458K
20260430T00Z_MSC_RDPS_WindSpeed_IsbL-0600_RLatLon0.09_PT033H.grib2 2026-04-30 02:49 466K
20260430T00Z_MSC_RDPS_WindSpeed_IsbL-0650_RLatLon0.09_PT033H.grib2 2026-04-30 02:49 607K
20260430T00Z_MSC_RDPS_WindSpeed_IsbL-0700_RLatLon0.09_PT033H.grib2 2026-04-30 02:49 634K
20260430T00Z_MSC_RDPS_WindSpeed_IsbL-0750_RLatLon0.09_PT033H.grib2 2026-04-30 02:49 706K
20260430T00Z_MSC_RDPS_WindSpeed_IsbL-0800_RLatLon0.09_PT033H.grib2 2026-04-30 02:49 748K
20260430T00Z_MSC_RDPS_WindSpeed_IsbL-0850_RLatLon0.09_PT033H.grib2 2026-04-30 02:49 806K
20260430T00Z_MSC_RDPS_WindSpeed_IsbL-0875_RLatLon0.09_PT033H.grib2 2026-04-30 02:49 828K
20260430T00Z_MSC_RDPS_WindSpeed_IsbL-0900_RLatLon0.09_PT033H.grib2 2026-04-30 02:49 847K
20260430T00Z_MSC_RDPS_WindSpeed_IsbL-0925_RLatLon0.09_PT033H.grib2 2026-04-30 02:49 860K
20260430T00Z_MSC_RDPS_WindSpeed_IsbL-0950_RLatLon0.09_PT033H.grib2 2026-04-30 02:49 861K
20260430T00Z_MSC_RDPS_WindSpeed_IsbL-0970_RLatLon0.09_PT033H.grib2 2026-04-30 02:49 861K
20260430T00Z_MSC_RDPS_WindSpeed_IsbL-0985_RLatLon0.09_PT033H.grib2 2026-04-30 02:49 852K
20260430T00Z_MSC_RDPS_WindSpeed_IsbL-1000_RLatLon0.09_PT033H.grib2 2026-04-30 02:49 845K
20260430T00Z_MSC_RDPS_WindSpeed_IsbL-1015_RLatLon0.09_PT033H.grib2 2026-04-30 02:49 836K
20260430T00Z_MSC_RDPS_WindU_AGL-10m_RLatLon0.09_PT033H.grib2 2026-04-30 02:49 430K
20260430T00Z_MSC_RDPS_WindU_AGL-120m_RLatLon0.09_PT033H.grib2 2026-04-30 02:49 536K
20260430T00Z_MSC_RDPS_WindU_AGL-40m_RLatLon0.09_PT033H.grib2 2026-04-30 02:49 539K
20260430T00Z_MSC_RDPS_WindU_AGL-80m_RLatLon0.09_PT033H.grib2 2026-04-30 02:49 538K
20260430T00Z_MSC_RDPS_WindU_IsbL-0001_RLatLon0.09_PT033H.grib2 2026-04-30 02:49 292K
20260430T00Z_MSC_RDPS_WindU_IsbL-0005_RLatLon0.09_PT033H.grib2 2026-04-30 02:49 286K
20260430T00Z_MSC_RDPS_WindU_IsbL-0010_RLatLon0.09_PT033H.grib2 2026-04-30 02:49 297K
20260430T00Z_MSC_RDPS_WindU_IsbL-0020_RLatLon0.09_PT033H.grib2 2026-04-30 02:49 352K
20260430T00Z_MSC_RDPS_WindU_IsbL-0030_RLatLon0.09_PT033H.grib2 2026-04-30 02:49 313K
20260430T00Z_MSC_RDPS_WindU_IsbL-0050_RLatLon0.09_PT033H.grib2 2026-04-30 02:49 344K
20260430T00Z_MSC_RDPS_WindU_IsbL-0100_RLatLon0.09_PT033H.grib2 2026-04-30 02:49 429K
20260430T00Z_MSC_RDPS_WindU_IsbL-0150_RLatLon0.09_PT033H.grib2 2026-04-30 02:49 394K
20260430T00Z_MSC_RDPS_WindU_IsbL-0175_RLatLon0.09_PT033H.grib2 2026-04-30 02:49 417K
20260430T00Z_MSC_RDPS_WindU_IsbL-0200_RLatLon0.09_PT033H.grib2 2026-04-30 02:49 336K
20260430T00Z_MSC_RDPS_WindU_IsbL-0225_RLatLon0.09_PT033H.grib2 2026-04-30 02:49 341K
20260430T00Z_MSC_RDPS_WindU_IsbL-0250_RLatLon0.09_PT033H.grib2 2026-04-30 02:49 342K
20260430T00Z_MSC_RDPS_WindU_IsbL-0275_RLatLon0.09_PT033H.grib2 2026-04-30 02:49 356K
20260430T00Z_MSC_RDPS_WindU_IsbL-0300_RLatLon0.09_PT033H.grib2 2026-04-30 02:49 351K
20260430T00Z_MSC_RDPS_WindU_IsbL-0350_RLatLon0.09_PT033H.grib2 2026-04-30 02:49 359K
20260430T00Z_MSC_RDPS_WindU_IsbL-0400_RLatLon0.09_PT033H.grib2 2026-04-30 02:49 362K
20260430T00Z_MSC_RDPS_WindU_IsbL-0450_RLatLon0.09_PT033H.grib2 2026-04-30 02:49 463K
20260430T00Z_MSC_RDPS_WindU_IsbL-0500_RLatLon0.09_PT033H.grib2 2026-04-30 02:49 465K
20260430T00Z_MSC_RDPS_WindU_IsbL-0550_RLatLon0.09_PT033H.grib2 2026-04-30 02:49 466K
20260430T00Z_MSC_RDPS_WindU_IsbL-0600_RLatLon0.09_PT033H.grib2 2026-04-30 02:49 474K
20260430T00Z_MSC_RDPS_WindU_IsbL-0650_RLatLon0.09_PT033H.grib2 2026-04-30 02:49 478K
20260430T00Z_MSC_RDPS_WindU_IsbL-0700_RLatLon0.09_PT033H.grib2 2026-04-30 02:49 503K
20260430T00Z_MSC_RDPS_WindU_IsbL-0750_RLatLon0.09_PT033H.grib2 2026-04-30 02:49 527K
20260430T00Z_MSC_RDPS_WindU_IsbL-0800_RLatLon0.09_PT033H.grib2 2026-04-30 02:49 565K
20260430T00Z_MSC_RDPS_WindU_IsbL-0850_RLatLon0.09_PT033H.grib2 2026-04-30 02:49 615K
20260430T00Z_MSC_RDPS_WindU_IsbL-0875_RLatLon0.09_PT033H.grib2 2026-04-30 02:49 633K
20260430T00Z_MSC_RDPS_WindU_IsbL-0900_RLatLon0.09_PT033H.grib2 2026-04-30 02:49 648K
20260430T00Z_MSC_RDPS_WindU_IsbL-0925_RLatLon0.09_PT033H.grib2 2026-04-30 02:49 657K
20260430T00Z_MSC_RDPS_WindU_IsbL-0950_RLatLon0.09_PT033H.grib2 2026-04-30 02:49 658K
20260430T00Z_MSC_RDPS_WindU_IsbL-0970_RLatLon0.09_PT033H.grib2 2026-04-30 02:49 797K
20260430T00Z_MSC_RDPS_WindU_IsbL-0985_RLatLon0.09_PT033H.grib2 2026-04-30 02:49 790K
20260430T00Z_MSC_RDPS_WindU_IsbL-1000_RLatLon0.09_PT033H.grib2 2026-04-30 02:49 785K
20260430T00Z_MSC_RDPS_WindU_IsbL-1015_RLatLon0.09_PT033H.grib2 2026-04-30 02:49 825K
20260430T00Z_MSC_RDPS_WindV_AGL-10m_RLatLon0.09_PT033H.grib2 2026-04-30 02:49 429K
20260430T00Z_MSC_RDPS_WindV_AGL-120m_RLatLon0.09_PT033H.grib2 2026-04-30 02:49 534K
20260430T00Z_MSC_RDPS_WindV_AGL-40m_RLatLon0.09_PT033H.grib2 2026-04-30 02:49 535K
20260430T00Z_MSC_RDPS_WindV_AGL-80m_RLatLon0.09_PT033H.grib2 2026-04-30 02:49 534K
20260430T00Z_MSC_RDPS_WindV_IsbL-0001_RLatLon0.09_PT033H.grib2 2026-04-30 02:49 246K
20260430T00Z_MSC_RDPS_WindV_IsbL-0005_RLatLon0.09_PT033H.grib2 2026-04-30 02:49 287K
20260430T00Z_MSC_RDPS_WindV_IsbL-0010_RLatLon0.09_PT033H.grib2 2026-04-30 02:49 300K
20260430T00Z_MSC_RDPS_WindV_IsbL-0020_RLatLon0.09_PT033H.grib2 2026-04-30 02:49 316K
20260430T00Z_MSC_RDPS_WindV_IsbL-0030_RLatLon0.09_PT033H.grib2 2026-04-30 02:49 317K
20260430T00Z_MSC_RDPS_WindV_IsbL-0050_RLatLon0.09_PT033H.grib2 2026-04-30 02:49 343K
20260430T00Z_MSC_RDPS_WindV_IsbL-0100_RLatLon0.09_PT033H.grib2 2026-04-30 02:49 427K
20260430T00Z_MSC_RDPS_WindV_IsbL-0150_RLatLon0.09_PT033H.grib2 2026-04-30 02:49 391K
20260430T00Z_MSC_RDPS_WindV_IsbL-0175_RLatLon0.09_PT033H.grib2 2026-04-30 02:49 416K
20260430T00Z_MSC_RDPS_WindV_IsbL-0200_RLatLon0.09_PT033H.grib2 2026-04-30 02:49 429K
20260430T00Z_MSC_RDPS_WindV_IsbL-0225_RLatLon0.09_PT033H.grib2 2026-04-30 02:49 337K
20260430T00Z_MSC_RDPS_WindV_IsbL-0250_RLatLon0.09_PT033H.grib2 2026-04-30 02:49 339K
20260430T00Z_MSC_RDPS_WindV_IsbL-0275_RLatLon0.09_PT033H.grib2 2026-04-30 02:49 354K
20260430T00Z_MSC_RDPS_WindV_IsbL-0300_RLatLon0.09_PT033H.grib2 2026-04-30 02:49 450K
20260430T00Z_MSC_RDPS_WindV_IsbL-0350_RLatLon0.09_PT033H.grib2 2026-04-30 02:49 459K
20260430T00Z_MSC_RDPS_WindV_IsbL-0400_RLatLon0.09_PT033H.grib2 2026-04-30 02:49 462K
20260430T00Z_MSC_RDPS_WindV_IsbL-0450_RLatLon0.09_PT033H.grib2 2026-04-30 02:49 462K
20260430T00Z_MSC_RDPS_WindV_IsbL-0500_RLatLon0.09_PT033H.grib2 2026-04-30 02:49 461K
20260430T00Z_MSC_RDPS_WindV_IsbL-0550_RLatLon0.09_PT033H.grib2 2026-04-30 02:49 464K
20260430T00Z_MSC_RDPS_WindV_IsbL-0600_RLatLon0.09_PT033H.grib2 2026-04-30 02:49 455K
20260430T00Z_MSC_RDPS_WindV_IsbL-0650_RLatLon0.09_PT033H.grib2 2026-04-30 02:49 475K
20260430T00Z_MSC_RDPS_WindV_IsbL-0700_RLatLon0.09_PT033H.grib2 2026-04-30 02:49 498K
20260430T00Z_MSC_RDPS_WindV_IsbL-0750_RLatLon0.09_PT033H.grib2 2026-04-30 02:49 522K
20260430T00Z_MSC_RDPS_WindV_IsbL-0800_RLatLon0.09_PT033H.grib2 2026-04-30 02:49 559K
20260430T00Z_MSC_RDPS_WindV_IsbL-0850_RLatLon0.09_PT033H.grib2 2026-04-30 02:49 612K
20260430T00Z_MSC_RDPS_WindV_IsbL-0875_RLatLon0.09_PT033H.grib2 2026-04-30 02:49 632K
20260430T00Z_MSC_RDPS_WindV_IsbL-0900_RLatLon0.09_PT033H.grib2 2026-04-30 02:49 785K
20260430T00Z_MSC_RDPS_WindV_IsbL-0925_RLatLon0.09_PT033H.grib2 2026-04-30 02:49 795K
20260430T00Z_MSC_RDPS_WindV_IsbL-0950_RLatLon0.09_PT033H.grib2 2026-04-30 02:49 796K
20260430T00Z_MSC_RDPS_WindV_IsbL-0970_RLatLon0.09_PT033H.grib2 2026-04-30 02:49 793K
20260430T00Z_MSC_RDPS_WindV_IsbL-0985_RLatLon0.09_PT033H.grib2 2026-04-30 02:49 786K
20260430T00Z_MSC_RDPS_WindV_IsbL-1000_RLatLon0.09_PT033H.grib2 2026-04-30 02:49 826K
20260430T00Z_MSC_RDPS_WindV_IsbL-1015_RLatLon0.09_PT033H.grib2 2026-04-30 02:49 819K